Total_Precipitation_Accumulation
2.14 2.33 2.25 2.15 2.13 2.11 2.49 2.89 3.09 2.85 2.67 2.55 2.31 2.19 2.32 2.44 2.50 2.14 1.97 2.14 2.04 1.88 1.74 1.63 1.62 1.71 1.87 2.01 2.11 2.22 2.40 2.70 2.99 3.15 3.40 3.82 4.28 4.73
2.29 2.33 2.25 2.19 2.28 2.20 2.35 2.65 2.91 3.10 2.88 2.39 2.23 2.13 2.14 1.96 2.06 1.81 1.84 2.05 1.90 1.74 1.66 1.62 1.60 1.60 1.61 1.63 1.68 1.71 1.77 1.87 2.03 2.18 2.31 2.54 2.85 3.28
2.47 2.46 2.49 2.59 2.54 2.42 2.52 2.63 2.81 3.08 2.99 2.46 2.35 2.35 2.20 1.97 1.92 1.81 1.76 1.84 1.87 1.95 1.76 1.65 1.54 1.45 1.43 1.44 1.47 1.54 1.60 1.67 1.72 1.80 1.90 1.99 2.04 2.19
2.63 2.88 2.77 2.81 2.75 2.59 2.70 2.66 2.73 3.03 2.92 2.64 2.63 2.63 2.56 2.30 2.14 1.94 1.73 1.72 1.85 2.06 1.81 1.66 1.58 1.50 1.46 1.44 1.42 1.39 1.41 1.46 1.50 1.53 1.57 1.61 1.67 1.76
2.63 2.70 2.76 2.97 2.84 2.73 2.64 2.60 2.70 2.86 2.98 2.74 2.66 2.85 2.70 2.41 2.26 1.99 1.79 1.87 1.65 1.77 1.75 1.68 1.66 1.59 1.52 1.43 1.42 1.38 1.34 1.34 1.36 1.43 1.51 1.59 1.61 1.59
2.56 2.47 2.57 2.83 2.89 2.88 2.65 2.63 2.77 2.88 2.92 2.81 2.70 2.83 2.84 2.72 2.57 2.33 2.21 2.03 1.83 1.70 1.76 1.67 1.66 1.61 1.52 1.39 1.35 1.35 1.37 1.36 1.32 1.29 1.28 1.30 1.34 1.36
2.33 2.21 2.21 2.47 2.71 2.77 2.49 2.51 2.66 2.68 2.68 2.70 2.67 2.76 2.83 2.98 2.83 2.53 2.30 2.14 1.90 1.72 1.72 1.57 1.54 1.46 1.48 1.46 1.39 1.31 1.22 1.21 1.18 1.17 1.16 1.16 1.14 1.15
2.31 2.21 2.09 2.07 2.09 2.24 2.36 2.49 2.62 2.60 2.60 2.75 2.90 2.97 2.98 3.04 3.03 2.82 2.54 2.28 2.04 1.80 1.88 1.83 1.72 1.67 1.53 1.40 1.42 1.33 1.24 1.20 1.16 1.09 1.07 1.07 1.09 1.09
2.19 2.19 1.90 1.71 1.82 1.74 1.97 2.17 2.28 2.36 2.42 2.63 2.79 2.87 3.01 3.15 3.22 2.95 2.76 2.54 2.25 2.03 2.03 1.83 1.72 1.69 1.60 1.55 1.63 1.43 1.34 1.28 1.22 1.18 1.13 1.06 1.03 1.05
1.92 1.95 1.89 1.75 1.74 1.88 1.89 1.82 1.77 1.86 2.06 2.08 2.20 2.49 2.75 2.97 3.15 3.05 2.97 2.65 2.31 2.08 2.02 1.83 1.65 1.61 1.56 1.59 1.69 1.55 1.42 1.31 1.19 1.13 1.12 1.06 1.01 1.02
1.78 1.79 1.81 1.71 1.87 1.84 1.80 1.78 1.76 1.78 1.87 1.97 1.97 2.14 2.40 2.58 2.74 2.83 2.82 2.67 2.37 2.15 2.12 2.07 1.84 1.76 1.68 1.51 1.48 1.56 1.43 1.33 1.24 1.16 1.11 1.08 1.11 1.11
1.81 1.80 1.80 1.70 1.73 1.66 1.59 1.70 1.68 1.71 1.81 1.82 1.81 1.81 1.89 2.22 2.62 2.48 2.53 2.60 2.36 2.04 1.84 1.95 1.93 1.96 1.81 1.45 1.30 1.30 1.28 1.33 1.34 1.27 1.22 1.20 1.27 1.16
1.93 1.84 1.83 1.79 1.50 1.47 1.46 1.49 1.53 1.58 1.70 1.64 1.54 1.53 1.62 1.79 2.10 2.22 2.22 2.23 2.19 1.91 1.71 1.77 1.74 1.82 1.73 1.46 1.28 1.21 1.19 1.15 1.13 1.19 1.25 1.29 1.30 1.21
1.89 1.88 1.90 1.82 1.51 1.40 1.28 1.26 1.32 1.29 1.30 1.38 1.39 1.40 1.48 1.60 1.77 1.95 2.05 2.12 2.06 1.90 1.85 1.89 1.77 1.70 1.65 1.45 1.26 1.15 1.18 1.19 1.19 1.14 1.17 1.43 1.42 1.35
1.73 1.88 1.77 1.64 1.44 1.22 1.18 1.17 1.16 1.10 1.18 1.31 1.36 1.37 1.39 1.47 1.71 2.01 2.18 2.30 2.25 1.95 1.84 1.86 1.86 1.82 1.81 1.60 1.36 1.18 1.14 1.14 1.16 1.22 1.25 1.37 1.43 1.41
1.58 1.64 1.62 1.60 1.50 1.32 1.21 1.13 1.06 1.12 1.21 1.26 1.36 1.49 1.62 1.70 1.78 1.89 2.06 2.13 2.18 1.97 1.78 1.78 1.77 1.85 1.77 1.55 1.47 1.33 1.18 1.12 1.12 1.22 1.33 1.40 1.49 1.51
1.50 1.48 1.50 1.59 1.62 1.59 1.53 1.43 1.37 1.39 1.37 1.35 1.47 1.59 1.58 1.59 1.61 1.75 1.94 2.00 1.89 1.72 1.60 1.59 1.71 1.76 1.73 1.66 1.51 1.27 1.15 1.09 1.09 1.23 1.44 1.52 1.49 1.46
1.43 1.48 1.60 1.67 1.72 1.73 1.73 1.62 1.50 1.38 1.33 1.37 1.45 1.52 1.57 1.59 1.62 1.76 1.90 1.92 1.76 1.62 1.62 1.53 1.61 1.80 1.80 1.60 1.38 1.28 1.21 1.13 1.12 1.29 1.41 1.47 1.47 1.37
1.21 1.34 1.51 1.57 1.63 1.64 1.65 1.59 1.53 1.48 1.47 1.51 1.58 1.63 1.68 1.68 1.68 1.72 1.83 1.87 1.76 1.62 1.59 1.60 1.57 1.66 1.67 1.38 1.09 1.07 1.21 1.26 1.33 1.41 1.47 1.46 1.41 1.31
1.04 1.16 1.30 1.45 1.55 1.65 1.72 1.70 1.67 1.64 1.59 1.56 1.64 1.68 1.74 1.80 1.77 1.72 1.77 1.85 1.82 1.75 1.69 1.63 1.57 1.51 1.51 1.45 1.26 1.12 1.15 1.31 1.45 1.49 1.46 1.51 1.49 1.46
1.05 1.09 1.18 1.37 1.60 1.75 1.84 1.92 1.92 1.83 1.69 1.67 1.69 1.72 1.73 1.82 1.82 1.75 1.79 1.94 1.94 1.85 1.66 1.45 1.39 1.56 1.68 1.83 1.65 1.23 1.13 1.22 1.33 1.46 1.53 1.62 1.59 1.56
1.10 1.12 1.21 1.33 1.51 1.71 1.80 1.81 1.83 1.78 1.73 1.70 1.67 1.74 1.78 1.80 1.76 1.74 1.76 1.86 1.84 1.77 1.63 1.54 1.65 1.86 1.95 1.89 1.60 1.36 1.29 1.28 1.35 1.44 1.46 1.47 1.47 1.41
1.25 1.18 1.17 1.24 1.39 1.53 1.61 1.66 1.70 1.68 1.64 1.65 1.65 1.69 1.76 1.80 1.83 1.82 1.77 1.81 1.84 1.86 1.94 1.91 1.88 1.89 1.88 1.83 1.72 1.56 1.43 1.39 1.46 1.51 1.39 1.32 1.23 1.16